Regional Weather Roundup
Issued by NWS

Home | Current Version | Previous Version | Graphics & Text | Print | Product List | Glossary On
Versions: 1 2 3 4 5 6 7 8 9 10 11 12 13 14 15 16 17 18 19 20 21 22 23 24 25 26 27 28 29 30 31 32 33 34 35 36 37 38 39 40 41 42 43 44 45 46 47 48 49 50
000
ASUS45 KCYS 171010
RWRWY

WYOMING REGIONAL WEATHER ROUNDUP
NATIONAL WEATHER SERVICE CHEYENNE WY
400 AM MDT FRI APR 17 2015

NOTE:  "FAIR" INDICATES FEW OR NO CLOUDS BELOW 12,000 FEET
WITH NO SIGNIFICANT WEATHER AND/OR OBSTRUCTIONS TO VISIBILITY.

WYZ001-171100-
YELLOWSTONE NATIONAL PARK

CITY           SKY/WX    TMP DP  RH WIND       PRES   REMARKS
LK YELLOWSTONE   N/A     20  17  88 CALM      30.25S
W YELLOWSTONE  NOT AVBL

$$
WYZ002>013-054>058-071-098>099-171100-
NORTHERN WYOMING

CITY           SKY/WX    TMP DP  RH WIND       PRES   REMARKS
JACKSON        FAIR      30  25  80 N15       30.22R WCI  19
CODY           FAIR      36  28  75 SW9       30.23R WCI  29
GREYBULL       FAIR      33  27  78 E3        30.25S
WORLAND        FAIR      31  28  89 S6        30.24R WCI  25
SHERIDAN       FAIR      29  25  85 SE3       30.21S
BUFFALO        FAIR      37  25  61 SW7       30.21F WCI  32
GILLETTE       FAIR      27  23  85 S5        30.20F WCI  22
HULETT         FAIR      32  28  86 CALM      30.22S
NEWCASTLE      FAIR      36  32  87 N8        30.20S WCI  29

$$
WYZ014>020-022>026-101>103-171100-
CENTRAL WYOMING

CITY           SKY/WX    TMP DP  RH WIND       PRES   REMARKS
BIG PINEY      FAIR      24  21  88 NW6       30.21S WCI  17
PINEDALE       FAIR      23  21  93 NW6       30.21S WCI  16
DUBOIS         FAIR      25  21  86 NW8       30.24S WCI  16
LANDER         CLOUDY    35  31  85 CALM      30.23S
RIVERTON       CLOUDY    37  33  85 W5        30.24F WCI  33
CASPER         CLOUDY    36  32  85 N3        30.21R
DOUGLAS        CLOUDY    38  36  92 NW6       30.21R WCI  33

$$
WYZ021-027>030-104>119-171100-
SOUTHERN WYOMING

CITY           SKY/WX    TMP DP  RH WIND       PRES   REMARKS
EVANSTON       CLOUDY    30  27  88 N8        30.18F WCI  22
FORT BRIDGER   CLOUDY    32  32 100 CALM      30.21S
ROCK SPRINGS   CLOUDY    33  27  78 NE15      30.17F WCI  23
DIXON          CLOUDY    38  31  76 N9        30.08F WCI  32
RAWLINS        LGT SNOW  33  30  88 N14       30.14F FOG     WCI  23
SARATOGA       FLURRIES  32  32 100 N9        30.12S WCI  24
LARAMIE        FLURRIES  31  29  92 NE18      30.09F WCI  19
CHEYENNE       LGT SNOW  33  32  96 N16G26    30.10F FOG     WCI  23
TORRINGTON     RAIN      42  39  89 NE9       30.15S FOG
PINE BLUFFS    LGT RAIN  37  37 100 NE16G23   30.10F WCI  28

$$



USA.gov is the U.S. government's official web portal to all federal, state and local government web resources and services.